Location: Unspecified
(0.0000°N, 0.0000°E)
Time: 14:18:02
(UTC+00:00)

NNS O-18 - Pass Details

Date: 11 November 2025
Orbit: 1012 x 1121 km, 90.0° (Epoch: 09 December)

Event Time Altitude Azimuth Distance (km) Brightness Sun altitude
Exits shadow 02:57:51 14° 184° (S) 2,575 10.3 -39.2°
Drops below altitude 10° 02:58:35 10° 184° (S) 2,841 10.6 -39.1°
Sets 03:01:05 0° 184° (S) 3,783 11.3 -38.5°
